Location: Cucq
(50.4773°N, 1.6202°E)
Time: 20:29:29
(UTC+00:00)

GEOS 3 Rocket - Pass Details

Date: 07 August 2020
Orbit: 770 x 849 km, 115.0° (Epoch: 21 September)

Event Time Altitude Azimuth Distance (km) Brightness Sun altitude
Rises 00:34:14 0° 45° (NE) 3,418 7.7 -22.7°
Reaches altitude 10° 00:36:41 10° 51° (NE) 2,481 6.8 -22.7°
Maximum altitude 00:41:52 46° 124° (SE) 1,132 4.1 -22.5°
Enters shadow 00:42:45 42° 151° (SSE) 1,192 4.1 -22.5°
